, NV

(GMT )
Eureka Airport

Weather History for K05U - April, 2013

Change the Weather History Date:

Friday, April 5, 2013

  Actual Average Record
Temperature  
Mean Temperature 48 °F -  
Max Temperature 62 °F - - ()
Min Temperature 33 °F - - ()
Degree Days  
Heating Degree Days 18    
Moisture  
Dew Point 27 °F    
Average Humidity 54    
Maximum Humidity 100    
Minimum Humidity 15    
Precipitation  
Precipitation 0.06 in - - ()
Sea Level Pressure  
Sea Level Pressure 30.07 in    
Wind  
Wind Speed 4 mph (West)    
Max Wind Speed 14 mph    
Max Gust Speed 20 mph    
Visibility 10 miles    
Events      
Averages and records for this station are not official NWS values.
T = Trace of Precipitation, MM = Missing Value Source: NWS Daily Summary

Daily Weather History Graph

Daily Weather History Graph

Search for Another Location

Airport or City:

Trip Planner

Search our weather history database for the weather conditions in past years. The results will help you decide how hot, cold, wet, or windy it might be!

Date:

Astronomy

Apr. 05, 2013 Rise Set
Actual Time 6:21 AM PDT 7:12 PM PDT
Civil Twilight 5:54 AM PDT 7:39 PM PDT
Nautical Twilight 5:21 AM PDT 8:12 PM PDT
Astronomical Twilight 4:48 AM PDT 8:45 PM PDT
Moon 3:30 AM PDT (4/5) 2:42 PM PDT (4/5)
Length of Visible Light 13h 45m
Length of Day
12h 50m
Waning Crescent, 22% of the Moon is Illuminated
Apr 5
Waning Crescent
Apr 10
New
Apr 18
First Quarter
Apr 25
Full
May 2
Last Quarter

Hourly Weather History & Observations

Time (PDT) Temp. Windchill Dew Point Humidity Pressure Visibility Wind Dir Wind Speed Gust Speed Precip Events Conditions
12:00 AM 48.2 °F - 37.4 °F 66% 30.04 in 7.0 mi NW 5.8 mph - N/A   Overcast
12:15 AM 46.4 °F - 41.0 °F 81% 30.05 in 3.0 mi Calm Calm - 0.01 in   Overcast
12:40 AM 44.6 °F 41.4 °F 41.0 °F 87% 30.06 in 4.0 mi SE 5.8 mph - 0.03 in   Overcast
1:00 AM 44.6 °F 41.4 °F 41.0 °F 87% 30.07 in 5.0 mi East 5.8 mph - 0.04 in   Overcast
1:15 AM 44.6 °F - 41.0 °F 87% 30.08 in 8.0 mi Calm Calm - N/A   Overcast
1:40 AM 44.6 °F 41.4 °F 41.0 °F 87% 30.08 in 5.0 mi NNE 5.8 mph - 0.01 in   Overcast
2:00 AM 42.8 °F 38.6 °F 39.2 °F 87% 30.07 in 8.0 mi NE 6.9 mph - 0.02 in   Overcast
2:20 AM 42.8 °F 38.6 °F 39.2 °F 87% 30.07 in 10.0 mi NE 6.9 mph - N/A   Overcast
2:40 AM 42.8 °F 40.1 °F 41.0 °F 93% 30.08 in 10.0 mi NE 4.6 mph - N/A   Overcast
3:00 AM 41.0 °F - 39.2 °F 93% 30.07 in 10.0 mi Calm Calm - N/A   Overcast
3:15 AM 39.2 °F - 37.4 °F 93% 30.07 in 10.0 mi Calm Calm - N/A   Mostly Cloudy
3:40 AM 39.2 °F 35.9 °F 37.4 °F 93% 30.07 in 10.0 mi WNW 4.6 mph - N/A   Overcast
4:00 AM 39.2 °F 35.0 °F 37.4 °F 93% 30.07 in 10.0 mi West 5.8 mph - N/A   Mostly Cloudy
4:20 AM 37.4 °F 34.9 °F 37.4 °F 100% 30.07 in 10.0 mi SW 3.5 mph - N/A   Mostly Cloudy
4:40 AM 37.4 °F - 35.6 °F 93% 30.07 in 10.0 mi Calm Calm - N/A   Mostly Cloudy
5:00 AM 35.6 °F - 35.6 °F 100% 30.07 in 10.0 mi Calm Calm - N/A   Clear
5:20 AM 35.6 °F - 35.6 °F 100% 30.07 in 10.0 mi Calm Calm - N/A   Clear
5:40 AM 35.6 °F - 35.6 °F 100% 30.07 in 10.0 mi Calm Calm - N/A   Clear
6:00 AM 37.4 °F - 35.6 °F 93% 30.07 in 10.0 mi Calm Calm - N/A   Clear
6:20 AM 35.6 °F - 35.6 °F 100% 30.08 in 10.0 mi Calm Calm - N/A   Clear
6:40 AM 35.6 °F - 33.8 °F 93% 30.08 in 10.0 mi Calm Calm - N/A   Clear
7:00 AM 35.6 °F - 33.8 °F 93% 30.09 in 10.0 mi Calm Calm - N/A   Clear
7:20 AM 33.8 °F - 32.0 °F 93% 30.11 in 10.0 mi Calm Calm - N/A   Clear
7:40 AM 35.6 °F - 35.6 °F 100% 30.12 in 10.0 mi Calm Calm - N/A   Clear
8:00 AM 39.2 °F 37.0 °F 35.6 °F 87% 30.12 in 10.0 mi ESE 3.5 mph - N/A   Clear
8:20 AM 41.0 °F - 35.6 °F 81% 30.12 in 10.0 mi Calm Calm - N/A   Clear
8:40 AM 44.6 °F - 32.0 °F 61% 30.13 in 10.0 mi Calm Calm - N/A   Scattered Clouds
9:00 AM 46.4 °F - 32.0 °F 57% 30.12 in 10.0 mi Calm Calm - N/A   Mostly Cloudy
9:20 AM 46.4 °F 45.2 °F 32.0 °F 57% 30.12 in 10.0 mi SE 3.5 mph - N/A   Mostly Cloudy
9:40 AM 48.2 °F - 32.0 °F 54% 30.12 in 10.0 mi West 3.5 mph - N/A   Mostly Cloudy
10:00 AM 50.0 °F - 30.2 °F 47% 30.12 in 10.0 mi NW 3.5 mph - N/A   Scattered Clouds
10:20 AM 48.2 °F - 28.4 °F 46% 30.12 in 10.0 mi NNW 3.5 mph - N/A   Mostly Cloudy
10:40 AM 50.0 °F - 26.6 °F 40% 30.12 in 10.0 mi WNW 4.6 mph - N/A   Mostly Cloudy
11:00 AM 50.0 °F - 24.8 °F 37% 30.12 in 10.0 mi South 3.5 mph - N/A   Partly Cloudy
11:20 AM 53.6 °F - 24.8 °F 33% 30.12 in 10.0 mi NNW 5.8 mph - N/A   Mostly Cloudy
11:40 AM 53.6 °F - 24.8 °F 33% 30.12 in 10.0 mi NW 6.9 mph - N/A   Scattered Clouds
12:00 PM 53.6 °F - 23.0 °F 30% 30.11 in 10.0 mi West 4.6 mph - N/A   Mostly Cloudy
12:20 PM 53.6 °F - 21.2 °F 28% 30.11 in 10.0 mi WSW 4.6 mph - N/A   Partly Cloudy
12:40 PM 55.4 °F - 23.0 °F 29% 30.10 in 10.0 mi West 11.5 mph - N/A   Clear
1:00 PM 55.4 °F - 19.4 °F 25% 30.09 in 10.0 mi SW 6.9 mph 19.6 mph N/A   Clear
1:20 PM 57.2 °F - 21.2 °F 25% 30.08 in 10.0 mi West 8.1 mph - N/A   Clear
1:40 PM 57.2 °F - 17.6 °F 21% 30.07 in 10.0 mi West 13.8 mph 19.6 mph N/A   Clear
2:00 PM 57.2 °F - 17.6 °F 21% 30.06 in 10.0 mi WNW 8.1 mph - N/A   Clear
2:20 PM 59.0 °F - 17.6 °F 20% 30.05 in 10.0 mi West 3.5 mph - N/A   Clear
2:40 PM 59.0 °F - 14.0 °F 17% 30.05 in 10.0 mi Calm Calm - N/A   Clear
3:00 PM 60.8 °F - 15.8 °F 17% 30.04 in 10.0 mi WSW 11.5 mph - N/A   Clear
3:20 PM 60.8 °F - 14.0 °F 16% 30.03 in 10.0 mi Calm Calm - N/A   Clear
3:40 PM 62.6 °F - 14.0 °F 15% 30.03 in 10.0 mi WNW 10.4 mph 17.3 mph N/A   Clear
4:00 PM 62.6 °F - 15.8 °F 16% 30.03 in 10.0 mi WNW 11.5 mph 17.3 mph N/A   Clear
4:20 PM 62.6 °F - 14.0 °F 15% 30.03 in 10.0 mi West 3.5 mph - N/A   Clear
4:40 PM 62.6 °F - 14.0 °F 15% 30.02 in 10.0 mi WNW 3.5 mph - N/A   Clear
5:00 PM 62.6 °F - 14.0 °F 15% 30.03 in 10.0 mi West 9.2 mph - N/A   Clear
5:20 PM 60.8 °F - 14.0 °F 16% 30.03 in 10.0 mi NW 9.2 mph - N/A   Clear
5:40 PM 59.0 °F - 12.2 °F 16% 30.03 in 10.0 mi West 4.6 mph - N/A   Clear
6:00 PM 57.2 °F - 14.0 °F 18% 30.03 in 10.0 mi WNW 6.9 mph 17.3 mph N/A   Clear
6:20 PM 55.4 °F - 15.8 °F 21% 30.03 in 10.0 mi NW 5.8 mph - N/A   Clear
6:40 PM 55.4 °F - 15.8 °F 21% 30.03 in 10.0 mi NW 6.9 mph - N/A   Clear
7:00 PM 53.6 °F - 17.6 °F 24% 30.03 in 10.0 mi NW 9.2 mph - N/A   Clear
7:20 PM 51.8 °F - 17.6 °F 26% 30.04 in 10.0 mi NW 6.9 mph - N/A   Clear
7:40 PM 50.0 °F - 19.4 °F 30% 30.04 in 10.0 mi NW 4.6 mph - N/A   Clear
8:00 PM 48.2 °F - 24.8 °F 40% 30.05 in 10.0 mi East 3.5 mph - N/A   Clear
8:20 PM 46.4 °F 44.3 °F 24.8 °F 43% 30.06 in 10.0 mi ESE 4.6 mph - N/A   Clear
8:40 PM 46.4 °F - 24.8 °F 43% 30.07 in 10.0 mi Calm Calm - N/A   Clear
9:00 PM 44.6 °F - 23.0 °F 43% 30.07 in 10.0 mi Calm Calm - N/A   Clear
9:20 PM 44.6 °F - 23.0 °F 43% 30.08 in 10.0 mi Calm Calm - N/A   Clear
9:40 PM 41.0 °F 37.1 °F 24.8 °F 53% 30.08 in 10.0 mi South 5.8 mph - N/A   Clear
10:00 PM 41.0 °F 39.0 °F 24.8 °F 53% 30.08 in 10.0 mi SSE 3.5 mph - N/A   Clear
10:20 PM 41.0 °F 39.0 °F 23.0 °F 49% 30.08 in 10.0 mi South 3.5 mph - N/A   Clear
10:40 PM 39.2 °F - 24.8 °F 56% 30.08 in 10.0 mi Calm Calm - N/A   Clear
11:00 PM 37.4 °F 31.4 °F 23.0 °F 56% 30.08 in 10.0 mi SSE 8.1 mph - N/A   Clear
11:20 PM 39.2 °F 35.9 °F 23.0 °F 52% 30.08 in 10.0 mi South 4.6 mph - N/A   Clear
11:40 PM 37.4 °F 33.8 °F 24.8 °F 60% 30.08 in 10.0 mi South 4.6 mph - N/A   Partly Cloudy